Regional Weather Roundup
Issued by NWS Glasgow, MT

Home | Current Version | Previous Version | Text Only | Print | Product List | Glossary On
Versions: 1 2 3 4 5 6 7 8 9 10 11 12 13 14 15 16 17 18 19 20 21 22 23 24 25 26
000
ASUS45 KGGW 172115
RWRGGW
HOURLY REGIONAL WEATHER ROUNDUP FOR NORTHEAST MONTANA
NATIONAL WEATHER SERVICE GLASGOW MONTANA
300 PM MDT THU AUG 17 2017

NOTE: "FAIR" INDICATES FEW OR NO CLOUDS BELOW 12,000 FEET WITH NO
SIGNIFICANT WEATHER AND/OR OBSTRUCTIONS TO VISISBILITY.

NORTHEAST MONTANA


CITY           SKY/WX    TMP DP  RH WIND       PRES   REMARKS
GLASGOW        SUNNY     85  41  21 N24G33    29.90R
PLENTYWOOD       N/A     83  47  28 N6G17       N/A
WOLF POINT     MOSUNNY   88  42  20 N13G22    29.86F
JORDAN           N/A     90  33  13 NW17      29.90S
WINNETT          N/A     84  32  15 NW15G24     N/A
SIDNEY         SUNNY     86  44  23 NW16G24   29.84S
GLENDIVE       PTSUNNY   91  39  16 NW15      29.87F
MALTA            N/A     86  41  20 NE9G20      N/A
SCOBEY           N/A     82  45  27 NW5       29.91R

FORT PECK REPORTS


CITY           SKY/WX    TMP DP  RH WIND       PRES   REMARKS
FORT PECK        N/A     87  43  21 NW14G28     N/A
THE PINES        N/A     87  32  14 N8G18       N/A

SOUTHEAST MONTANA


CITY           SKY/WX    TMP DP  RH WIND       PRES   REMARKS
BILLINGS       MOSUNNY   86  32  14 NW17      29.99S
MILES CITY     SUNNY     87  34  15 SW16      29.90F
BAKER          MOSUNNY   85  35  16 NW8       29.93S
LIVINGSTON     MOSUNNY   83  37  19 W20G25    30.07F

CENTRAL MONTANA


CITY           SKY/WX    TMP DP  RH WIND       PRES   REMARKS
HAVRE          SUNNY     86  37  17 NW12      29.94F
LEWISTOWN      MOSUNNY   81  36  19 NW14G23   30.03F
GREAT FALLS    MOSUNNY   82  36  19 NE8G17    30.03S
CUT BANK       PTSUNNY   78  37  22 N5        30.02F
HELENA         MOSUNNY   82  36  19 CALM      30.05S
BUTTE          SUNNY     75  34  22 VRB5      30.17F
BOZEMAN        SUNNY     80  39  23 NW12G21   30.10S

WESTERN MONTANA


CITY           SKY/WX    TMP DP  RH WIND       PRES   REMARKS
MISSOULA       MOSUNNY   82  42  24 S10       30.05F
KALISPELL      NOT AVBL

NORTH DAKOTA


CITY           SKY/WX    TMP DP  RH WIND       PRES   REMARKS
WILLISTON      SUNNY     85  54  34 W13       29.84R
DICKINSON      SUNNY     85  47  26 W15       29.86S
MINOT          SUNNY     85  48  27 SE13G18   29.82F
BISMARCK       SUNNY     82  53  36 S10       29.86S

SOUTHERN SASKATCHEWAN


CITY           SKY/WX    TMP DP  RH WIND       PRES   REMARKS
REGINA         CLOUDY    79  45  29 NW14G20   29.89S
MOOSE JAW      PTSUNNY   77  48  36 NW7       29.92S
ESTEVAN        PTSUNNY   82  55  39 NE12G20   29.84S
SWIFT CURRENT  SUNNY     77  45  31 N12       29.95S





USA.gov is the U.S. government's official web portal to all federal, state and local government web resources and services.